Weather in Malaya Kulikovka

Russia / Oryol Oblast     52˚53′49″N   36˚10′26″E
temp.,
°C
wind,
m/s
gust,
m/s
humid.,
%
clouds,
%
prec.,
mm/h
press.,
hPa
HPBL,
m
17 january, sun
sun1700:00−16˚w51095100 0.3 1012375
03:00−16˚wnw4896100 0.7 1012390
06:00−16˚w4696100 0.4 1013288
09:00−16˚wnw3596100 1.2 1014315
12:00−16˚n3494100 0.6 1016314
15:00−16˚n2393100 0.8 1016321
18:00−18˚n2397100 0.3 1018144
21:00−22˚nne339697 0.3 101848
18 january, mon
mon1800:00−24˚ene229633 0.0 101920
03:00−24˚ne129657 0.0 102020
06:00−24˚ne229696 0.0 101924
09:00−23˚ne229698 0.0 102055
12:00−21˚ne1193100 0.0 1020204
15:00−19˚nne2293100 0.1 1019230
18:00−19˚n1298100 0.5 1019115
21:00−19˚n1298100 1.0 1019111
19 january, tue
tue1900:00−19˚n1198100 0.6 101983
03:00−19˚nnw1298100 1.0 101994
06:00−19˚n2398100 0.6 1018143
09:00−19˚n1198100 0.9 101921
12:00−17˚nnw1292100 0.2 1018232
15:00−16˚nw2392100 0.3 1017241
18:00−18˚wnw2294100 0.0 101827
21:00−18˚wnw2296100 0.0 101920
20 january, wed
wed2000:00−19˚wnw2399100 0.0 102020
03:00−20˚wnw2310099 0.1 102120
06:00−21˚wnw229985 0.0 102220
09:00−21˚wnw229976 0.0 102320
12:00−17˚w239664 0.0 1024110
15:00−16˚wsw229661 0.0 102451
18:00−18˚sw229710 0.0 102620
21:00−19˚ssw23975 0.0 102620
21 january, thu
thu2100:00−18˚s47950 0.0 102594
03:00−17˚s410959 0.0 1025155
06:00−15˚s6129133 0.0 1023243
09:00−13˚ssw7159457 0.0 1022344
12:00−6˚ssw81694100 0.2 1020556
15:00−5˚sw81493100 0.8 1018638
18:00−3˚sw81592100 0.4 1017584
21:00−2˚sw71494100 0.4 1016619